Weather History for Bentonville, AR

Change the Weather History Date:

Sunday, December 9, 2012

  Actual Average Record
Temperature  
Mean Temperature 42 °F -  
Max Temperature 53 °F 48 °F 75 °F (1991)
Min Temperature 30 °F 27 °F 8 °F (1977)
Degree Days  
Heating Degree Days 24    
Moisture  
Dew Point 41 °F    
Average Humidity 79    
Maximum Humidity 94    
Minimum Humidity 56    
Precipitation  
Precipitation 0.25 in - - ()
Sea Level Pressure  
Sea Level Pressure 29.85 in    
Wind  
Wind Speed 6 mph (North)    
Max Wind Speed 16 mph    
Max Gust Speed 24 mph    
Visibility 7 miles    
Events Thunderstorm    
Averages and records for this station are not official NWS values.
T = Trace of Precipitation, MM = Missing Value Source: NWS Daily Summary

Daily Weather History Graph

Daily Weather History Graph

Search for Another Location

Airport:

Trip Planner

Search our weather history database for the weather conditions in past years. The results will help you decide how hot, cold, wet, or windy it might be!

Date:

Astronomy

Dec. 09, 2012 Rise Set
Actual Time 7:17 AM CST 5:01 PM CST
Civil Twilight 6:48 AM CST 5:30 PM CST
Nautical Twilight 6:16 AM CST 6:02 PM CST
Astronomical Twilight 5:45 AM CST 6:33 PM CST
Moon 2:56 AM CST (12/9) 2:04 PM CST (12/9)
Length of Visible Light 10h 41m
Length of Day
9h 44m
Waning Crescent, 18% of the Moon is Illuminated
Dec 9
Waning Crescent
Dec 13
New
Dec 19
First Quarter
Dec 28
Full
Jan 4
Last Quarter

Hourly Weather History & Observations

Time (CST) Temp. Windchill Dew Point Humidity Pressure Visibility Wind Dir Wind Speed Gust Speed Precip Events Conditions
12:15 AM 51.8 °F - 46.4 °F 82% 29.80 in 7.0 mi Calm Calm - N/A   Mostly Cloudy
12:55 AM 50.0 °F - 46.4 °F 87% 29.79 in 6.0 mi Calm Calm - N/A   Partly Cloudy
1:15 AM 48.2 °F - 46.4 °F 93% 29.79 in 5.0 mi North 5.8 mph - N/A   Partly Cloudy
1:55 AM 50.0 °F - 46.4 °F 87% 29.79 in 5.0 mi NNE 4.6 mph - N/A   Overcast
2:15 AM 51.8 °F - 48.2 °F 88% 29.79 in 5.0 mi North 5.8 mph - N/A   Overcast
2:35 AM 51.8 °F - 48.2 °F 88% 29.78 in 6.0 mi Calm Calm - N/A   Overcast
2:55 AM 51.8 °F - 48.2 °F 88% 29.78 in 6.0 mi NNE 4.6 mph - N/A   Overcast
3:35 AM 51.8 °F - 48.2 °F 88% 29.77 in 6.0 mi ENE 4.6 mph - N/A   Overcast
3:55 AM 51.8 °F - 48.2 °F 88% 29.77 in 6.0 mi ENE 3.5 mph - N/A   Overcast
4:15 AM 53.6 °F - 48.2 °F 82% 29.76 in 6.0 mi NE 3.5 mph - N/A   Overcast
4:35 AM 53.6 °F - 48.2 °F 82% 29.75 in 6.0 mi ENE 5.8 mph - N/A   Overcast
4:55 AM 53.6 °F - 48.2 °F 82% 29.75 in 6.0 mi NE 5.8 mph - N/A   Overcast
5:15 AM 53.6 °F - 48.2 °F 82% 29.75 in 5.0 mi ENE 5.8 mph - N/A Thunderstorm Overcast
5:35 AM 53.6 °F - 48.2 °F 82% 29.76 in 2.5 mi NE 3.5 mph - 0.13 in Thunderstorm Overcast
5:55 AM 51.8 °F - 48.2 °F 88% 29.75 in 3.0 mi NE 5.8 mph - 0.22 in Thunderstorm Mostly Cloudy
6:16 AM 51.8 °F - 48.2 °F 88% 29.75 in 3.0 mi ENE 6.9 mph - 0.02 in   Overcast
6:35 AM 53.6 °F - 50.0 °F 88% 29.76 in 3.0 mi NE 4.6 mph - 0.03 in   Overcast
7:15 AM 53.6 °F - 50.0 °F 88% 29.77 in 3.0 mi NNE 3.5 mph - N/A   Overcast
7:35 AM 53.6 °F - 50.0 °F 88% 29.77 in 2.5 mi North 5.8 mph - N/A   Overcast
7:56 AM 51.8 °F - 50.0 °F 94% 29.78 in 2.5 mi North 5.8 mph - N/A   Overcast
8:15 AM 53.6 °F - 50.0 °F 88% 29.78 in 2.5 mi NNW 4.6 mph - N/A   Overcast
8:35 AM 53.6 °F - 50.0 °F 88% 29.78 in 2.5 mi North 4.6 mph - N/A   Overcast
8:55 AM 53.6 °F - 50.0 °F 88% 29.79 in 2.5 mi North 9.2 mph - N/A   Overcast
9:15 AM 53.6 °F - 50.0 °F 88% 29.80 in 2.5 mi NNW 6.9 mph - N/A   Overcast
9:35 AM 53.6 °F - 50.0 °F 88% 29.80 in 3.0 mi North 11.5 mph - N/A   Overcast
9:55 AM 53.6 °F - 50.0 °F 88% 29.82 in 4.0 mi NNW 3.5 mph - N/A   Overcast
10:15 AM 53.6 °F - 50.0 °F 88% 29.81 in 4.0 mi North 10.4 mph - N/A   Overcast
10:55 AM 51.8 °F - 46.4 °F 82% 29.82 in 5.0 mi North 15.0 mph - N/A   Overcast
11:15 AM 51.8 °F - 44.6 °F 76% 29.83 in 5.0 mi North 10.4 mph - N/A   Overcast
11:55 AM 50.0 °F - 44.6 °F 82% 29.81 in 5.0 mi North 13.8 mph 19.6 mph N/A   Overcast
12:15 PM 50.0 °F - 44.6 °F 82% 29.82 in 5.0 mi North 9.2 mph - N/A   Overcast
12:35 PM 48.2 °F - 42.8 °F 82% 29.82 in 7.0 mi North 11.5 mph - N/A   Overcast
12:56 PM 48.2 °F - 42.8 °F 82% 29.83 in 8.0 mi North 9.2 mph - N/A   Overcast
1:15 PM 48.2 °F - 42.8 °F 82% 29.83 in 10.0 mi North 10.4 mph - N/A   Overcast
1:35 PM 48.2 °F - 42.8 °F 82% 29.82 in 10.0 mi North 12.7 mph - N/A   Overcast
1:56 PM 46.4 °F 42.4 °F 42.8 °F 87% 29.84 in 9.0 mi NNW 8.1 mph - N/A   Overcast
2:15 PM 46.4 °F 41.9 °F 42.8 °F 87% 29.84 in 10.0 mi North 9.2 mph - N/A   Overcast
2:35 PM 46.4 °F 40.7 °F 41.0 °F 81% 29.85 in 9.0 mi North 12.7 mph - N/A   Overcast
2:55 PM 46.4 °F 41.1 °F 41.0 °F 81% 29.86 in 8.0 mi North 11.5 mph - N/A   Overcast
3:35 PM 46.4 °F 42.4 °F 41.0 °F 81% 29.87 in 9.0 mi NNW 8.1 mph - N/A   Overcast
3:55 PM 46.4 °F 42.4 °F 39.2 °F 76% 29.88 in 9.0 mi North 8.1 mph - N/A   Overcast
4:15 PM 46.4 °F 42.9 °F 39.2 °F 76% 29.88 in 10.0 mi NNW 6.9 mph - N/A   Overcast
4:55 PM 46.4 °F 41.9 °F 39.2 °F 76% 29.89 in 10.0 mi NNW 9.2 mph - N/A   Overcast
5:15 PM 46.4 °F 42.4 °F 39.2 °F 76% 29.90 in 10.0 mi NNW 8.1 mph - N/A   Overcast
5:36 PM 46.4 °F 42.9 °F 39.2 °F 76% 29.91 in 10.0 mi NNW 6.9 mph - N/A   Overcast
5:55 PM 46.4 °F 42.4 °F 37.4 °F 71% 29.91 in 10.0 mi NNW 8.1 mph - N/A   Overcast
6:15 PM 44.6 °F 39.2 °F 37.4 °F 76% 29.91 in 10.0 mi NNW 10.4 mph 19.6 mph N/A   Overcast
6:35 PM 44.6 °F 39.2 °F 35.6 °F 71% 29.92 in 10.0 mi NNW 10.4 mph 19.6 mph N/A   Overcast
6:55 PM 44.6 °F 38.4 °F 35.6 °F 71% 29.93 in 10.0 mi NNW 12.7 mph 18.4 mph N/A   Overcast
7:35 PM 42.8 °F 36.2 °F 33.8 °F 70% 29.94 in 10.0 mi NNW 12.7 mph 19.6 mph N/A   Overcast
7:55 PM 42.8 °F 36.6 °F 32.0 °F 66% 29.95 in 10.0 mi NNW 11.5 mph 18.4 mph N/A   Overcast
8:35 PM 39.2 °F 30.5 °F 26.6 °F 61% 29.96 in 10.0 mi North 16.1 mph 21.9 mph N/A   Overcast
8:55 PM 37.4 °F 28.9 °F 24.8 °F 60% 29.96 in 10.0 mi North 13.8 mph 24.2 mph N/A   Scattered Clouds
9:16 PM 37.4 °F 29.8 °F 24.8 °F 60% 29.96 in 10.0 mi North 11.5 mph - N/A   Clear
9:35 PM 35.6 °F 27.5 °F 23.0 °F 60% 29.97 in 10.0 mi NNW 11.5 mph 19.6 mph N/A   Clear
9:55 PM 35.6 °F 26.6 °F 23.0 °F 60% 29.99 in 10.0 mi North 13.8 mph 18.4 mph N/A   Clear
10:35 PM 33.8 °F 25.3 °F 19.4 °F 56% 30.00 in 10.0 mi NNW 11.5 mph - N/A   Clear
10:55 PM 32.0 °F 23.0 °F 19.4 °F 60% 30.00 in 10.0 mi North 11.5 mph 17.3 mph N/A   Clear
11:16 PM 30.2 °F 21.3 °F 19.4 °F 64% 30.01 in 10.0 mi NW 10.4 mph - N/A   Clear
11:35 PM 30.2 °F 20.8 °F 17.6 °F 60% 30.01 in 10.0 mi NNW 11.5 mph 19.6 mph N/A   Clear